Powrót do katalogu

BREEZE-M DEB

LostHEO
NORAD 39991·DEBRIS·🇷🇺 Russia

Wystrzelony Mar 14, 2008 z Baikonur Cosmodrome

Loading…

Następne Przeloty (najbliższe 24 godziny)

TLE

NieaktualneSource: Space-Track

Epoka: Jan 29, 2013, 22:43 UTC

1 39991U 08011DQ  13029.94691056 -.00001507  00000-0 -10996-1 0  9997
2 39991  48.2833 251.4459 6548109 201.3131 348.6015  3.03718054 13254

Śledź BREEZE-M DEB w czasie rzeczywistym z AllMySat

Download on the App Store